Temp
15 15 16 16 15 15 16 16 16 16 16 16 16 16 16 16 15 15 15 14 14 15 15 14 14 14 14 14 14 13 13 13 13 13 13 12 12 12 12 12 12 11 11 11
15 16 15 16 16 16 16 16 17 17 17 17 16 16 16 16 16 16 15 15 14 15 15 15 15 15 15 14 14 14 14 15 14 14 14 14 14 14 14 13 13 12 12 11
15 16 16 16 16 16 17 17 18 17 17 17 16 17 17 17 17 17 17 16 15 15 15 16 16 17 17 16 15 15 15 14 14 14 15 15 14 14 14 14 13 12 11 11
15 15 16 16 16 17 17 18 18 17 18 17 16 17 18 18 18 18 17 17 17 17 16 16 17 17 17 17 17 16 16 15 15 15 15 15 15 14 13 12 12 12 12 12
16 16 16 17 17 17 17 18 18 18 18 17 17 16 18 18 18 18 18 18 18 17 17 17 16 17 17 17 17 16 16 16 15 15 15 14 14 14 13 12 11 11 11 12
16 16 17 18 18 18 18 18 18 17 16 16 17 17 19 19 19 19 19 18 18 18 18 17 17 16 17 17 17 16 16 16 16 16 15 15 15 14 14 12 12 11 11 11
15 16 18 18 18 19 18 18 17 15 14 15 17 16 19 18 18 19 19 19 18 18 18 18 17 17 17 16 16 16 16 15 15 14 14 14 15 14 13 13 13 12 11 11
16 18 18 19 19 19 19 18 18 15 12 15 16 17 18 19 19 19 19 19 19 19 18 18 17 17 17 16 16 15 15 15 15 14 14 13 13 13 13 13 12 12 12 12
16 17 18 19 19 19 19 19 19 18 15 15 16 17 18 19 19 19 19 19 19 19 18 18 17 17 17 16 15 16 15 15 14 14 14 13 13 12 12 13 12 12 12 11
15 16 18 19 19 19 19 19 19 18 13 15 15 17 18 18 19 19 18 19 19 19 18 17 17 17 17 16 16 15 15 15 14 14 13 13 13 13 13 12 11 11 11 11
16 16 18 19 19 19 19 19 19 19 18 13 12 16 18 18 18 18 18 19 18 18 17 17 16 16 15 15 14 14 14 14 14 13 12 12 12 12 11 11 10 10 10 10
16 16 17 19 19 19 20 20 20 20 17 17 16 16 18 18 18 18 18 17 17 16 16 16 16 15 15 14 14 14 14 14 13 12 12 12 11 10 10 9 9 9 10 10
16 16 17 19 19 19 19 19 20 20 19 18 16 16 16 16 16 16 16 16 16 16 16 16 15 14 14 14 14 13 13 13 11 11 10 10 10 10 9 9 9 9 9 10
17 16 17 17 17 18 19 19 19 19 19 19 18 18 16 16 16 15 15 15 15 15 15 14 14 13 13 13 14 13 11 9 9 9 9 9 9 9 9 8 8 8 9 9
16 17 17 17 18 18 19 19 19 19 19 19 19 18 16 15 15 15 15 15 14 14 14 13 13 14 14 14 12 10 8 8 8 8 8 8 8 8 8 8 8 8 8 8
17 17 17 18 18 18 19 19 19 19 19 18 19 17 15 14 15 15 14 13 13 13 13 13 13 13 12 11 10 8 8 8 8 8 8 7 7 7 7 7 7 7 7 7
16 17 17 17 18 18 18 18 18 18 18 18 18 17 16 15 14 14 13 13 13 13 12 12 12 11 10 8 8 7 7 7 7 6 6 6 6 6 6 6 6 6 7 7
17 17 17 17 18 16 17 17 18 17 17 17 17 16 15 15 14 13 13 12 12 12 12 11 9 8 7 7 7 6 7 6 6 6 6 5 5 5 6 5 5 6 6 6
17 18 17 17 16 15 16 17 16 16 16 16 16 16 15 15 14 13 12 12 12 12 10 8 7 7 6 6 7 6 6 6 6 6 6 6 5 5 5 5 4 4 4 5
17 17 17 17 16 13 16 16 16 15 16 16 15 14 14 14 13 12 12 12 11 10 8 7 6 6 6 6 6 5 5 6 6 5 6 6 5 5 3 3 4 4 4 5
17 17 17 17 17 16 16 16 16 15 16 15 14 14 13 13 12 11 11 11 9 7 7 7 6 6 6 5 5 6 5 6 6 6 5 5 5 5 4 4 4 4 4 5
17 17 16 16 16 16 16 16 15 15 14 13 13 12 12 12 11 11 11 9 8 7 7 6 5 5 5 5 5 6 6 6 5 6 5 5 5 5 4 4 4 4 4 5
16 16 16 16 16 16 15 15 15 14 13 13 13 12 11 11 11 10 8 7 7 6 5 5 5 5 4 5 6 7 6 6 5 5 5 5 4 4 4 5 5 4 4 4
15 15 15 15 15 15 14 14 14 13 13 12 11 11 10 10 9 8 7 7 6 5 5 5 4 4 5 6 6 6 6 5 5 5 5 5 4 5 5 5 4 4 4 4
14 14 14 14 14 14 13 13 13 12 11 10 10 10 10 9 8 7 6 6 5 5 4 4 5 5 6 6 5 6 6 5 5 5 5 5 5 5 5 5 4 4 4 4
14 14 14 13 13 13 12 12 11 10 10 10 10 9 9 7 6 6 5 5 5 5 5 5 5 5 5 5 5 5 5 5 5 5 5 5 5 5 5 5 5 4 4 4
Height
3171 3171 3172 3174 3176 3177 3178 3179 3180 3181 3182 3183 3183 3184 3185 3185 3185 3185 3185 3185 3185 3185 3186 3185 3187 3188 3190 3190 3190 3191 3192 3193 3194 3194 3195 3196 3197 3196 3196 3196 3196 3196 3197 3197
3172 3170 3173 3176 3177 3178 3179 3179 3180 3180 3180 3183 3183 3183 3184 3185 3185 3185 3185 3185 3186 3186 3187 3188 3188 3188 3189 3189 3190 3190 3191 3192 3193 3194 3195 3196 3196 3196 3197 3196 3195 3195 3194 3195
3172 3174 3175 3176 3178 3178 3179 3178 3178 3180 3179 3181 3183 3183 3183 3185 3185 3185 3185 3184 3184 3186 3188 3189 3190 3189 3189 3190 3189 3190 3190 3191 3192 3193 3193 3193 3193 3193 3194 3194 3194 3195 3195 3194
3174 3175 3175 3176 3176 3177 3176 3176 3176 3177 3179 3181 3182 3184 3182 3183 3184 3184 3185 3185 3186 3187 3188 3189 3189 3190 3189 3190 3190 3190 3190 3191 3192 3190 3189 3190 3191 3190 3192 3191 3190 3190 3189 3189
3175 3174 3174 3174 3175 3176 3177 3177 3176 3177 3179 3181 3181 3184 3180 3181 3182 3184 3185 3185 3187 3187 3188 3189 3190 3189 3189 3189 3189 3190 3190 3190 3191 3190 3190 3189 3187 3188 3187 3187 3188 3187 3186 3186
3173 3173 3173 3173 3174 3176 3176 3177 3178 3179 3181 3180 3179 3182 3178 3179 3181 3183 3184 3185 3186 3187 3187 3187 3188 3187 3186 3188 3188 3189 3190 3190 3189 3189 3189 3188 3188 3187 3186 3186 3185 3185 3185 3186
3170 3170 3170 3171 3174 3175 3176 3178 3180 3183 3182 3178 3177 3179 3178 3179 3180 3182 3183 3184 3185 3185 3185 3185 3185 3185 3186 3187 3188 3188 3188 3187 3187 3186 3187 3185 3184 3183 3181 3179 3177 3176 3176 3176
3167 3168 3168 3169 3172 3173 3175 3176 3177 3181 3181 3176 3176 3177 3177 3176 3176 3178 3181 3182 3183 3183 3183 3183 3184 3183 3183 3185 3185 3185 3185 3183 3182 3180 3179 3177 3177 3175 3172 3171 3171 3167 3169 3165
3166 3164 3165 3167 3169 3172 3171 3172 3173 3172 3175 3176 3176 3176 3176 3175 3176 3177 3180 3181 3181 3180 3179 3179 3179 3179 3178 3177 3177 3177 3177 3176 3175 3172 3171 3168 3166 3163 3161 3160 3159 3156 3154 3149
3166 3165 3164 3165 3168 3169 3169 3171 3171 3171 3175 3177 3174 3173 3173 3174 3175 3177 3178 3179 3178 3177 3177 3176 3176 3177 3177 3176 3174 3173 3173 3172 3169 3166 3161 3157 3153 3149 3147 3144 3142 3140 3140 3139
3165 3166 3164 3164 3165 3165 3167 3167 3168 3169 3169 3170 3175 3172 3171 3172 3174 3175 3177 3176 3175 3175 3176 3177 3177 3175 3173 3171 3170 3169 3167 3164 3161 3156 3151 3146 3142 3137 3134 3133 3131 3129 3127 3125
3163 3164 3163 3163 3164 3164 3164 3165 3166 3166 3168 3168 3168 3170 3168 3169 3171 3173 3174 3174 3174 3173 3174 3174 3173 3172 3169 3167 3165 3163 3160 3157 3151 3146 3141 3137 3134 3129 3126 3124 3122 3118 3116 3115
3160 3162 3161 3161 3164 3162 3163 3164 3164 3165 3165 3165 3167 3168 3167 3168 3169 3170 3171 3172 3173 3172 3172 3171 3170 3168 3166 3162 3160 3156 3152 3146 3142 3138 3133 3128 3125 3122 3119 3116 3116 3114 3109 3105
3158 3160 3160 3163 3162 3162 3162 3163 3163 3164 3163 3164 3164 3164 3165 3167 3168 3169 3170 3171 3170 3170 3169 3169 3167 3164 3160 3157 3153 3147 3142 3138 3135 3132 3128 3124 3120 3117 3113 3109 3106 3104 3102 3099
3156 3157 3160 3159 3158 3160 3161 3162 3162 3162 3162 3162 3161 3160 3162 3165 3166 3167 3168 3169 3168 3168 3166 3163 3161 3157 3152 3146 3142 3139 3137 3134 3131 3127 3123 3118 3113 3109 3105 3101 3097 3094 3090 3086
3155 3155 3157 3158 3159 3159 3160 3161 3160 3160 3160 3159 3159 3160 3162 3163 3164 3165 3165 3166 3164 3162 3161 3158 3153 3148 3144 3140 3136 3134 3131 3127 3121 3117 3112 3107 3103 3097 3093 3089 3085 3080 3078 3076
3154 3153 3154 3156 3158 3158 3160 3159 3159 3159 3159 3159 3159 3160 3160 3161 3162 3163 3164 3162 3160 3158 3155 3151 3147 3144 3140 3135 3130 3126 3122 3116 3110 3105 3100 3096 3091 3086 3081 3077 3073 3070 3067 3063
3150 3151 3154 3155 3156 3158 3157 3157 3158 3158 3158 3158 3158 3158 3159 3159 3160 3161 3160 3159 3158 3154 3150 3146 3142 3138 3134 3129 3124 3118 3112 3107 3101 3097 3091 3085 3080 3076 3072 3067 3063 3059 3056 3053
3147 3149 3151 3153 3154 3156 3155 3155 3156 3156 3158 3157 3157 3157 3156 3157 3157 3158 3158 3156 3152 3148 3144 3140 3137 3133 3128 3123 3117 3111 3106 3100 3094 3087 3081 3076 3071 3064 3061 3057 3053 3050 3046 3043
3145 3147 3150 3150 3151 3153 3153 3154 3155 3155 3156 3156 3154 3154 3154 3154 3155 3155 3153 3150 3146 3142 3138 3136 3132 3128 3123 3118 3113 3106 3100 3093 3086 3080 3073 3067 3061 3055 3049 3047 3045 3042 3037 3034
3145 3145 3146 3147 3148 3150 3150 3152 3153 3154 3156 3151 3152 3152 3153 3153 3152 3150 3148 3144 3140 3137 3134 3131 3127 3123 3118 3112 3105 3099 3093 3086 3079 3072 3065 3059 3054 3049 3044 3040 3037 3033 3028 3025
3142 3142 3143 3145 3146 3149 3148 3150 3151 3150 3148 3149 3149 3149 3149 3148 3147 3145 3142 3139 3136 3134 3131 3127 3122 3118 3112 3105 3098 3093 3087 3080 3072 3065 3057 3052 3046 3041 3038 3034 3030 3026 3021 3017
3141 3142 3143 3146 3146 3146 3147 3146 3146 3145 3145 3145 3145 3144 3144 3143 3142 3140 3137 3134 3132 3128 3124 3120 3116 3111 3106 3099 3091 3086 3081 3074 3067 3059 3053 3048 3043 3037 3032 3028 3023 3019 3015 3009
3138 3140 3141 3142 3143 3143 3143 3142 3142 3143 3143 3143 3142 3142 3141 3139 3136 3134 3132 3129 3126 3123 3118 3114 3109 3103 3097 3092 3087 3081 3075 3069 3062 3055 3048 3042 3038 3033 3028 3023 3017 3013 3008 3002
3138 3139 3139 3139 3138 3138 3138 3139 3139 3140 3140 3140 3139 3137 3134 3132 3130 3127 3125 3123 3120 3117 3112 3107 3100 3095 3090 3085 3081 3076 3069 3063 3058 3051 3045 3038 3033 3028 3023 3018 3013 3008 3002 2994
3134 3134 3134 3134 3134 3133 3134 3134 3135 3136 3136 3135 3133 3131 3128 3126 3125 3123 3120 3118 3114 3110 3104 3099 3094 3088 3084 3080 3075 3070 3064 3058 3053 3047 3041 3035 3029 3024 3018 3012 3009 3005 2998 2991
Wind_Speed
6 8 4 8 7 1 2 4 7 5 6 10 11 15 5 4 4 4 7 9 8 6 5 7 6 6 6 5 4 4 4 4 4 5 5 5 6 6 6 6 8 8 7 7
9 8 14 2 1 3 8 10 8 4 6 8 4 7 5 6 6 2 4 3 5 7 5 4 5 6 7 5 4 3 3 4 4 4 4 4 5 4 4 5 7 8 10 11
11 10 11 1 3 6 6 11 8 5 5 10 3 7 3 8 6 4 4 3 4 2 3 6 3 10 9 8 5 3 1 4 7 7 8 8 9 9 9 7 6 5 9 12
6 8 6 4 6 3 2 11 4 5 7 4 13 3 9 9 2 5 7 7 4 1 2 3 2 5 7 6 4 2 2 4 7 9 11 11 10 11 9 9 10 12 15 16
9 8 5 6 2 4 5 9 5 3 8 9 8 5 3 12 7 8 9 9 6 3 3 1 3 2 2 1 2 2 6 9 11 12 13 15 16 15 15 16 17 20 22 22
12 10 7 4 3 5 4 2 2 4 9 5 6 12 3 5 1 4 6 6 6 6 3 4 5 10 10 8 7 5 9 11 14 18 21 22 22 22 22 22 24 25 25 27
8 11 7 7 7 7 5 4 1 2 2 6 3 10 10 4 4 3 6 2 6 8 11 9 9 11 13 16 16 15 15 16 20 24 25 27 28 28 29 30 31 32 32 32
3 4 6 8 5 5 5 8 9 6 4 2 5 5 2 3 4 12 9 4 6 10 14 15 13 17 18 20 22 23 24 25 26 29 30 32 34 37 40 40 38 39 39 39
3 4 7 7 6 7 6 7 9 8 3 2 4 3 3 3 4 15 9 7 6 7 11 15 17 16 14 17 17 17 21 25 27 29 32 34 39 43 46 48 49 46 46 50
7 7 5 4 8 9 12 7 5 6 4 3 2 3 6 7 8 8 10 10 10 11 11 12 12 9 10 8 10 13 16 21 25 27 31 34 39 38 38 39 43 46 49 54
8 8 3 3 6 5 10 9 5 6 3 6 3 3 7 7 12 11 12 13 11 8 7 5 4 6 8 9 11 15 19 24 32 35 35 38 36 27 26 27 29 32 37 39
8 5 8 5 3 4 11 5 3 3 5 4 3 3 4 7 14 14 14 11 9 6 2 5 11 11 12 12 16 21 26 33 34 36 40 39 30 30 25 24 26 33 34 33
9 7 5 5 8 10 5 5 4 3 5 6 5 4 7 10 15 15 13 9 5 3 7 11 15 14 15 18 24 29 37 31 26 24 24 29 31 30 31 32 35 30 32 36
19 10 6 6 6 2 7 5 5 3 3 6 8 8 16 16 15 13 8 6 6 8 10 14 15 18 22 26 35 39 29 24 23 24 28 32 34 33 38 39 37 35 37 32
10 6 6 6 4 9 7 5 3 3 5 5 6 12 19 18 14 12 11 10 9 13 17 22 27 32 36 39 37 31 28 27 27 29 33 37 38 39 41 44 44 46 44 43
19 10 6 4 6 7 6 5 3 1 4 6 5 12 20 18 16 14 12 10 15 20 25 31 35 35 35 34 34 34 35 38 38 40 35 33 34 38 39 40 40 40 37 34
21 15 13 13 8 8 3 2 2 5 7 4 4 8 17 19 18 13 11 16 19 25 31 34 34 34 33 34 37 39 43 45 42 40 40 36 35 36 38 38 37 36 37 38
21 17 19 11 13 3 7 5 6 5 7 7 8 9 11 16 15 12 16 18 24 30 34 34 31 30 32 36 40 44 47 48 45 45 43 41 41 42 38 36 34 35 36 37
18 15 14 8 6 6 8 9 4 2 7 10 12 14 15 14 16 16 18 22 30 34 33 28 26 29 33 38 42 42 45 48 46 43 42 43 44 44 40 35 34 34 34 34
10 7 8 9 5 7 5 9 7 11 16 18 19 15 14 16 17 18 21 28 31 32 28 27 30 33 38 40 42 44 47 47 44 46 43 40 42 42 34 31 33 34 31 33
11 8 8 9 5 3 6 10 14 13 14 9 8 13 16 16 16 19 26 30 30 26 28 31 33 34 37 42 43 44 45 44 46 44 47 41 39 34 28 30 32 30 34 35
6 5 7 7 4 4 7 7 13 13 12 7 5 8 12 15 20 25 28 30 27 28 29 29 31 35 38 39 43 41 39 42 38 39 36 33 35 30 32 33 31 34 33 34
7 7 6 5 4 5 10 14 15 14 13 12 13 15 17 20 24 27 25 24 25 27 29 32 35 38 39 42 39 33 35 39 36 33 28 30 26 26 28 31 33 31 30 32
11 9 8 7 10 11 13 15 16 14 15 16 16 16 19 25 24 22 23 26 28 31 34 36 39 43 41 34 30 30 35 31 34 34 31 27 26 30 30 32 28 27 31 34
9 9 10 11 11 15 15 14 12 14 14 13 15 22 25 24 24 24 26 29 31 33 36 40 42 37 32 30 27 31 35 32 33 34 31 29 28 31 31 29 25 28 32 35
20 18 14 14 13 11 12 12 13 12 13 19 22 23 23 24 24 25 27 28 31 37 36 33 33 30 27 28 29 32 33 32 31 28 27 28 28 31 30 29 25 24 28 36
Wind_Direction
245 256 134 113 134 179 203 283 283 291 273 275 260 268 311 183 180 132 92 68 60 82 96 107 117 118 131 138 135 142 141 163 172 177 176 172 174 201 220 212 216 217 217 223
232 184 129 63 312 271 274 281 286 322 254 251 254 262 238 157 140 71 320 345 19 27 50 86 135 121 114 135 163 157 145 150 154 145 145 132 128 146 177 188 190 202 215 231
175 182 197 267 308 316 291 288 296 280 260 225 240 246 233 151 142 113 78 343 313 312 26 58 97 100 86 91 98 102 178 186 166 162 153 161 171 170 175 183 199 225 245 256
227 224 252 305 339 340 1 351 249 202 235 220 220 258 201 160 136 122 131 112 103 2 299 14 65 111 97 73 71 108 218 233 215 191 186 195 202 205 213 225 239 252 253 253
229 224 295 295 118 2 8 3 175 158 197 239 239 238 209 208 216 157 160 152 136 120 173 228 342 184 188 265 4 272 280 270 265 259 248 240 237 236 238 246 259 265 269 268
219 236 267 171 225 283 288 39 200 199 234 248 248 211 277 211 269 162 209 211 219 236 220 253 245 248 252 246 261 301 320 301 286 283 281 281 281 277 267 265 266 272 273 277
220 243 251 199 222 205 224 196 147 289 258 228 289 209 238 310 300 206 191 262 302 284 267 265 259 269 274 268 276 280 288 304 307 294 291 290 291 283 277 270 266 269 270 267
270 202 204 198 193 202 228 267 216 205 202 254 180 216 76 327 277 179 211 239 266 266 264 269 288 290 290 286 282 283 289 294 288 292 294 289 283 277 273 272 272 268 268 267
287 269 210 214 233 242 246 226 235 240 179 164 195 230 239 246 180 185 213 255 279 284 250 250 274 272 267 275 272 268 270 278 283 280 281 287 288 287 286 281 276 272 270 267
266 294 200 220 231 231 227 259 221 202 137 220 243 239 182 188 189 198 210 234 253 280 241 237 238 268 279 295 294 292 293 291 290 286 287 288 292 287 281 282 281 281 278 280
268 260 194 241 198 187 214 237 216 173 186 157 165 229 249 228 198 195 216 237 240 236 221 246 347 347 324 319 314 310 305 302 298 294 287 291 299 290 292 291 291 289 286 281
266 241 278 247 208 199 182 197 263 242 196 166 168 200 272 219 197 204 224 220 216 219 250 356 343 330 313 299 299 298 301 305 291 279 282 289 286 305 312 305 289 294 298 294
227 224 284 158 125 108 141 160 143 173 151 172 165 207 190 192 190 197 210 206 202 281 312 322 330 309 290 287 287 294 305 308 294 294 295 298 303 305 306 301 300 296 298 301
223 231 247 286 307 321 139 140 143 146 184 206 219 226 199 198 203 206 208 233 272 291 307 314 311 304 300 298 302 311 317 316 314 307 303 304 305 302 300 301 301 298 299 299
195 246 273 300 176 152 151 163 186 250 279 260 294 237 201 195 203 220 233 248 286 310 322 324 317 314 318 317 315 319 319 316 311 306 301 298 296 294 293 295 294 295 295 292
180 256 287 268 191 170 171 139 124 322 286 276 304 192 194 204 220 236 258 290 313 322 323 319 321 323 318 315 318 319 318 316 315 318 319 310 297 290 289 289 290 293 292 284
230 249 273 277 214 204 236 291 250 273 278 287 254 222 214 218 228 243 282 306 317 320 322 325 322 318 319 321 321 323 323 324 325 323 325 321 318 314 308 300 294 292 290 288
242 239 244 261 226 202 235 223 226 233 280 290 260 242 236 237 251 275 295 310 313 320 321 318 319 320 321 325 323 321 324 325 324 322 317 317 314 318 316 308 300 293 288 286
211 224 217 212 206 219 214 214 180 279 295 288 281 273 270 258 268 280 293 303 316 317 318 318 315 318 320 323 321 323 322 321 321 319 320 321 317 312 308 304 301 298 297 297
126 161 199 177 167 200 264 200 200 301 285 284 271 252 259 271 277 290 303 314 313 317 317 316 320 319 318 318 319 319 320 321 321 319 321 319 317 317 311 310 307 311 306 303
185 198 212 202 199 212 219 215 250 281 299 307 272 265 265 271 284 300 309 313 318 319 317 316 315 317 318 319 319 320 323 322 319 318 315 311 315 316 319 316 313 310 308 304
205 199 177 183 175 222 223 269 281 291 287 300 289 270 289 295 299 308 314 317 315 313 311 314 316 318 317 318 320 319 322 326 325 327 319 322 317 304 310 314 309 312 314 313
202 212 198 210 207 234 281 281 275 270 284 290 295 298 294 301 308 311 315 312 312 318 318 317 319 319 320 319 319 322 323 329 335 335 320 328 331 330 321 316 313 316 317 318
208 222 247 255 274 280 286 274 257 263 277 285 289 297 303 306 314 310 309 322 323 319 319 317 315 315 318 321 322 323 327 326 334 331 330 330 324 322 320 324 320 320 325 323
251 276 271 262 280 287 265 261 273 278 283 288 296 306 312 314 313 320 322 319 317 315 311 311 313 318 322 323 323 323 327 325 328 330 330 336 327 324 322 324 321 322 324 323
268 284 282 283 290 279 273 281 278 278 290 309 316 319 318 317 313 312 311 308 306 307 312 316 320 324 324 322 322 324 327 328 328 333 334 332 329 329 329 328 327 327 327 331